Location: Saint-Palais-sur-Mer
(45.6429°N, 1.0859°W)
Time: 09:18:27
(UTC+01:00)

Vanguard 1 Rocket - Visible Passes

Search period start: 15 February 2026 00:00
Search period end: 25 February 2026 00:00
Orbit: 652 x 4215 km, 34.3° (Epoch: 12 February)

Date Brightness Start Highest point End Pass type
(mag) Time Alt. Az. Time Alt. Az. Time Alt. Az.
15 Feb 11.0 18:54:47 10° W 19:11:49 53° SSW 19:36:19 10° SE visible
15 Feb 11.4 21:23:16 10° W 21:41:29 33° SW 22:01:58 10° SSE visible
16 Feb 11.2 20:08:40 10° W 20:26:32 42° SSW 20:49:22 10° SSE visible
16 Feb 11.7 22:41:35 10° W 22:55:00 18° SW 23:08:57 10° SSW visible
17 Feb 11.0 18:55:10 10° W 19:11:25 49° SSW 19:35:14 10° SE visible
17 Feb 11.6 21:24:08 10° W 21:40:42 27° SW 21:59:41 10° S visible
18 Feb 11.4 20:09:14 10° W 20:25:57 36° SSW 20:47:39 10° SSE visible
18 Feb 11.9 22:45:09 10° WSW 22:54:07 13° SW 23:03:28 10° SSW visible
19 Feb 11.2 18:55:38 10° W 19:11:03 44° SSW 19:33:53 10° SE visible
19 Feb 11.8 21:25:30 10° W 21:39:57 22° SW 21:56:41 10° S visible
20 Feb 11.5 20:10:02 10° W 20:25:25 31° SW 20:45:31 10° SSE visible
21 Feb 11.3 18:56:14 10° W 19:10:44 39° SSW 19:32:15 10° SSE visible
21 Feb 11.9 21:27:43 10° WSW 21:39:19 17° SW 21:52:34 10° SSW visible
22 Feb 11.7 20:11:10 10° W 20:24:57 25° SW 20:42:48 10° S visible
23 Feb 11.5 18:57:00 10° W 19:10:27 33° SSW 19:30:14 10° SSE visible
23 Feb 12.0 21:32:11 10° WSW 21:38:46 12° SW 21:45:56 10° SSW visible
24 Feb 11.9 20:12:52 10° WSW 20:24:33 20° SW 20:39:18 10° S visible
